{"data":{"norad_id":49443,"intl_designator":"2021-104AM","name":"STARLINK-3136","alt_names":[],"object_type":"PAYLOAD","status":"ACTIVE","operator":null,"country":"US","launch_date":"2021-11-13","launch_site_code":"AFETR","launch_vehicle":null,"mission":null,"orbit_class":"UNKNOWN","rcs_meters":null,"size_class":null,"mass_kg":null,"dimensions":null,"purposes":["comms"],"wikipedia_slug":null,"has_3d_model":false,"image_url":null,"decayed_at":null,"tle_current":{"epoch":"2026-09-20T03:41:53.438208Z","epoch_age_seconds":71259,"freshness":"FRESH","line1":"1 49443U 21104AM  26263.15409072  .00015806  00000+0  88573-3 0  9992","line2":"2 49443  53.2146  53.4213 0001504  84.5190 275.5976 15.13570545268319","mean_motion":15.13570545,"eccentricity":0.0001504,"inclination_deg":53.2146,"raan_deg":53.4213,"arg_perigee_deg":84.519,"mean_anomaly_deg":275.5976,"bstar":0.00088573,"rev_number":26831,"period_min":95.139272150675,"perigee_km":524.28339800538,"apogee_km":526.35995837578,"semimajor_km":6903.4586781906,"source":"CELESTRAK","updated_at":"2026-09-20T09:00:39.399189Z"}}}